www.pogodaiklimat.ru

Погода и климат >> Архив погоды >> Уругвай >> Сальто


ПОГОДА в Сальто

  • Прогноз погоды в Сальто
  • Монитор погоды в Сальто

АРХИВ ПОГОДЫ в Сальто

Время (UTC), дата Ветер
(напр.,м/с)
 
Видим.   Явления Облачность Т
(С)
Тd
(С)
f
(%)
Тe
(С)
Тes
(С)
Комфортность P
(гПа)
Po
(гПа)
Тmin
(С)
Tmax
(С)
R
(мм)
R24
(мм)
S
(см)
12 17.06 ЮЗ 3 6000 м дымка {туман} 10/10 200 м
[Frnb]
+14.4 +14.2 99 +13 +13 1020.6 1015.5 48
15 17.06 штиль 0 6000 м дымка {туман} 10/10 200 м
[Frnb]
+16.0 +15.4 96 +16 +16 1019.5 1014.5
18 17.06 З 8 1500 м слаб. морось 10/6 200 м
[St As op]
+16.1 +15.6 97 +14 +14 1017.4 1012.3 0.0
09 18.06 С 9 10 км 10/10 300 м
[St]
+16.8 +15.9 94 +15 +15 1012.9 1007.9
12 18.06 З 10 10 км в посл. час морось 10/10 300 м
[St]
+13.2 +12.5 96 +10 +10 1015.4 1010.3 0.8
15 18.06 З 10 7000 м слаб. морось {дождь} 10/8 300 м
[St As op]
+12.2 +11.2 94 +8 +8 1016.2 1011.1
18 18.06 СЗ 8 12 км {морось} 6/6 300 м
[Cu Sc Ac und]
+15.2 +10.7 74 +13 +14 1014.1 1009.0 0.3
09 19.06 СЗ 10 10 км ясно +9.2 +7.3 88 +4 +4 1018.2 1013.0
12 19.06 СЗ 11 12 км ясно +11.2 +8.0 81 +7 +7 1019.8 1014.7
15 19.06 З 13 20 км ясно +15.9 +8.1 60 +14 +14 1020.3 1015.2
18 19.06 З 15 20 км ясно +17.9 +8.6 54 +16 +16 1019.3 1014.2
09 20.06 СЗ 4 400 м туман ясно +5.4 +5.4 100 +1 +1 1022.5 1017.2
12 20.06 штиль 0 10 км в посл. час туман 3/1 200 м
[St Cs]
+7.0 +6.8 99 +6 +7 1024.3 1019.0
15 20.06 В 5 10 км 6/0
[Cs]
+14.8 +9.2 69 +13 +17 1024.5 1019.4
18 20.06 С 6 15 км 8/0
[Ac As Cs]
+17.6 +9.5 59 +17 +18 1022.6 1017.6
09 21.06 ЮВ 3 10 км 6/0
[Cs]
+6.5 +6.3 99 +3 +3 1019.5 1014.2
12 21.06 ЮВ 6 12 км 9/0
[Ac As Cs]
+7.6 +7.4 99 +3 +3 1020.2 1015.0
15 21.06 СВ 8 20 км 9/4 600 м
[Cu Sc Ac As Cs]
+17.4 +12.0 71 +16 +17 1020.4 1015.3
18 21.06 В 9 20 км 9/3 600 м
[Cu Sc Ac As Cs]
+21.1 +13.2 61 +23 +24 комфорт 1018.0 1013.0
09 22.06 СВ 7 10 км 9/0
[Ac As Cs]
+17.6 +16.4 93 +17 +17 1018.8 1013.8
12 22.06 СВ 5 12 км 6/0
[Ac As Cs]
+18.9 +17.4 91 +20 +20 1019.9 1014.9
15 22.06 С 9 15 км 6/1 1000 м
[Cu Sc Ac As Cs]
+23.7 +19.1 75 +28 +29 душно 1019.0 1014.1
18 22.06 СЗ 5 15 км 9/0
[Ac As Cs]
+26.0 +20.2 70 +32 +33 очень
душно
1017.4 1012.5
09 23.06 СВ 7 10 км ясно +18.0 +17.1 94 +17 +17 1014.9 1009.9
12 23.06 штиль 0 9000 м мгла 4/0
[Ac As]
+18.4 +17.3 93 +19 +20 1014.9 1009.9
15 23.06 С 8 10 км 9/1 600 м
[Cu Sc Ac und]
+22.0 +17.1 74 +26 +27 душно 1014.1 1009.1
18 23.06 СВ 7 10 км 6/4 1000 м
[Cu hum Ac As]
+25.4 +17.3 61 +29 +30 душно 1010.9 1006.0
09 24.06 СВ 6 10 км 9/0
[Ac As Cs]
+18.1 +16.4 90 +18 +18 1009.1 1004.1

 

Местоположение метеостанции Сальто (Уругвай): широта -31.38 долгота -57.95 высота над уровнем моря 33 м.

В архиве по умолчанию представлена погода в Сальто за последнюю неделю. Архивные данные за месяц целиком и за предыдущие месяцы, начиная с января 2011 года, Вы можете получить, выбрав интересующий диапазон дат из раскрывающегося списка и нажав кнопку "Ввод!".


*Определитесь, кто Вы:
робот инопланетянин человек

Внимание! Время в таблицах - всемирное. Для получения местного времени необходимо прибавить поправку, которая равна 0 ч.

Смотрите также архив погоды в соседних городах и на ближайших метеорологических станциях:

Погода в Конкордии (Аргентина) (11 км)
Погода в Пайсанду (Уругвай) (106 км)
Погода в Монте-Касерос (Аргентина) (128 км)
Погода в Белья-Уньоне (Уругвай) (129 км)
Погода в Янге (Уругвай) (148 км)
Погода в Артигасе (Уругвай) (178 км)
Погода в Куараи (Риу-Гранди-ду-Сул, Бразилия) (183 км)
Погода в Уругуаяне (Риу-Гранди-ду-Сул, Бразилия) (189 км)
Погода в Такуарембо (Уругвай) (190 км)
Погода в Гуалегуайчу (Аргентина) (191 км)

Пояснения к столбцам:

Ветер - указаны скорость ветра в м/с - средняя за 10 мин, порывы в срок и между сроками (в фигурных скобках) и направление, откуда дует ветер: С - северный, СВ - северо-восточный, В - восточный, ЮВ - юго-восточный, Ю - южный, ЮЗ - юго-западный, З - западный, СЗ - северо-западный.
Видимость - горизонтальная дальность видимости в метрах или километрах. При видимости от 1 до 10 км при отсутствии осадков обычно наблюдается дымка, при ухудшении видимости до 1 км и менее - туман. В сухую погоду видимость может ухудшаться дымом, пылью или мглою.
Явления - указаны атмосферные явления, наблюдавшиеся в срок или в последний час перед сроком; фигурными скобками обозначены явления, наблюдавшиеся между сроками (за 1-3 часа до срока); квадратными скобками обозначены град или гололедные отложения с указанием их диаметра в мм.
Облачность - указаны через наклонную черту общая и нижняя облачность в баллах и высота нижней границы облаков в метрах; квадратными скобками обозначены формы облаков: Ci - перистые, Cs - перисто-слоистые, Cc - перисто-кучевые, Ac - высококучевые, As - высокослоистые, Sc - слоисто-кучевые, Ns - слоисто-дождевые, Cu - кучевые, Cb - кучево-дождевые. Подробнее классификацию облаков см. в Атласе облаков (PDF).
T - Температура воздуха - температура, измеренная на высоте 2 м над землей.
Td - Температура точки росы - температура, при понижении до которой содержащийся в воздухе водяной пар достигнет насыщения.
f - Относительная влажность воздуха - влажноcть воздуха, измеренная на высоте 2 м над землей.
Te - Эффективная температура - температура, которую ощущает одетый по сезону человек в тени. Характеристика душности погоды. При расчете учитывается влияние влажности воздуха и скорости ветра на теплоощущения человека.
Tes - Эффективная температура на солнце - температура, которую ощущает человек, с поправкой на солнечный нагрев. Характеристика знойности погоды. Зависит от высоты солнца над горизонтом, облачности и скорости ветра. Ночью, в пасмурную погоду, а также при ветре 12 м/с и более поправка равна нулю.
P - Атмосферное давление - приведенное к уровню моря атмосферное давление.
Po - Атмосферное давление - измеренное на уровне метеостанции атмосферное давление.
Tmin - Минимальная температура - минимум температуры воздуха на высоте 2 м над землей.
Tmax - Максимальная температура - максимум температуры воздуха на высоте 2 м над землей.
R - Количество осадков - Количество выпавших осадков за период времени, мм. При наведении курсора мыши на число - период времени, за который выпало указанное количество осадков.
R24 - Количество осадков - Количество выпавших осадков за 24 часа, мм.
S - Снежный покров - Высота снежного покрова, см. При наведении курсора мыши на число - состояние снежного покрова и степень покрытия местности в баллах.